Location: Newark
(55.7083°N, 13.1992°E)
Time: 23:34:05
(UTC+00:00)

Transit 4A - Pass Details

Date: 23 February 2020
Orbit: 871 x 973 km, 66.8° (Epoch: 06 April)

Event Time Altitude Azimuth Distance (km) Brightness Sun altitude
Exits shadow 01:55:21 33° 6° (N) 1,425 9.1 -35.3°
Drops below altitude 10° 01:59:23 10° 43° (NE) 2,532 11.0 -34.9°
Sets 02:02:03 0° 52° (NE) 3,475 11.9 -34.6°
